EW4585 Weather Reports


time (UTC)temp
F
wind
direction
speed
knots
gust
knots
rain 1hr
in
rain 24hr
in
rain mn
in
humidity
%
barometer
mb
20260509064459 53 205 0.0 3.5 0.00 0.17 0.00 92 1007.2
20260509062959 53 207 0.9 5.2 0.00 0.17 0.00 92 1007.4
20260509061458 53 197 3.5 7.0 0.00 0.17 0.00 92 1007.5
20260509060002 53 194 0.9 3.5 0.00 0.17 0.00 92 1007.7
20260509054459 53 192 0.9 5.2 0.00 0.17 0.00 92 1007.7
20260509053000 53 198 1.7 4.3 0.00 0.17 0.00 92 1007.9
20260509051458 53 210 0.9 3.5 0.00 0.17 0.00 92 1007.8
20260509050006 53 200 2.6 4.3 0.00 0.17 0.00 92 1007.7
20260509044500 53 200 0.9 3.5 0.00 0.17 0.00 92 1007.7
20260509043001 53 197 1.7 4.3 0.00 0.17 0.00 92 1007.7
20260509041501 54 197 0.0 2.6 0.00 0.17 0.00 92 1007.8
20260509040006 54 197 0.9 4.3 0.00 0.17 0.00 92 1007.8
20260509034502 54 197 1.7 2.6 0.00 0.17 0.17 92 1007.7
20260509033002 54 197 0.9 1.7 0.00 0.17 0.17 92 1007.8
20260509031500 54 197 0.0 1.7 0.00 0.17 0.17 92 1007.8
20260509030006 54 197 0.9 2.6 0.00 0.17 0.17 92 1008.1
20260509024501 54 197 0.0 1.7 0.00 0.17 0.17 91 1008.0
20260509021500 54 196 1.7 3.5 0.00 0.17 0.17 91 1008.2
20260509014501 55 204 0.0 1.7 0.00 0.17 0.17 91 1007.9
20260509013001 55 204 0.0 1.7 0.00 0.17 0.17 91 1008.0
20260509011501 55 204 0.0 1.7 0.00 0.17 0.17 91 1007.8
20260509010006 55 204 0.0 2.6 0.00 0.17 0.17 91 1007.9
20260509004500 55 206 1.7 4.3 0.00 0.17 0.17 91 1007.8
20260509003001 55 196 1.7 3.5 0.00 0.17 0.17 91 1008.0
20260509001501 55 192 0.9 2.6 0.00 0.17 0.17 91 1008.0
20260509000005 55 190 2.6 4.3 0.00 0.17 0.17 90 1008.3
20260508234501 55 202 1.7 4.3 0.00 0.17 0.17 90 1008.3
20260508233001 55 196 0.0 2.6 0.00 0.17 0.17 90 1008.3
20260508231500 55 201 0.0 3.5 0.00 0.17 0.17 90 1008.5
20260508230004 55 201 1.7 5.2 0.01 0.17 0.17 90 1008.3
20260508224501 56 202 0.9 6.1 0.03 0.18 0.17 90 1008.4
20260508223001 56 180 1.7 6.1 0.04 0.18 0.17 90 1008.4
20260508221500 56 204 0.0 2.6 0.06 0.18 0.17 90 1008.5
20260508213001 57 204 0.9 2.6 0.06 0.14 0.13 89 1008.5
20260508211500 57 261 0.9 2.6 0.06 0.12 0.11 89 1008.9
20260508210005 57 258 0.9 5.2 0.06 0.11 0.10 88 1009.0
20260508204459 57 258 1.7 7.0 0.05 0.09 0.08 87 1009.2
20260508203001 58 262 0.9 6.1 0.05 0.07 0.06 86 1009.2
20260508201459 58 348 0.9 3.5 0.05 0.06 0.05 85 1009.3
20260508200005 58 243 0.9 3.5 0.04 0.05 0.04 84 1009.5
20260508194459 59 262 1.7 7.0 0.03 0.04 0.03 81 1010.0
20260508193001 61 275 2.6 6.1 0.01 0.02 0.01 75 1009.8
20260508191459 62 220 2.6 7.8 0.00 0.01 0.00 70 1009.7
20260508190004 63 259 1.7 7.8 0.00 0.01 0.00 65 1009.7
20260508184500 64 231 3.5 7.8 0.00 0.01 0.00 65 1009.8
20260508182959 64 244 1.7 6.1 0.00 0.01 0.00 64 1009.8
20260508181459 64 274 4.3 9.6 0.00 0.01 0.00 61 1009.8
20260508180006 66 274 3.5 11.3 0.00 0.01 0.00 59 1009.9
20260508174500 68 259 3.5 11.3 0.00 0.01 0.00 56 1010.0
20260508173000 70 253 4.3 11.3 0.00 0.01 0.00 57 1009.9
20260508171459 70 246 4.3 14.8 0.00 0.01 0.00 60 1010.1
20260508170004 66 200 3.5 8.7 0.00 0.01 0.00 62 1010.4
20260508164501 65 252 3.5 7.8 0.00 0.01 0.00 60 1011.0
20260508163000 65 242 2.6 7.8 0.00 0.01 0.00 62 1011.2
20260508161459 66 238 3.5 7.8 0.00 0.01 0.00 61 1011.3
20260508160004 64 207 4.3 9.6 0.00 0.01 0.00 65 1011.5
20260508154500 63 246 2.6 8.7 0.00 0.01 0.00 64 1011.5
20260508151459 62 202 1.7 7.8 0.00 0.01 0.00 66 1011.6
20260508150005 61 229 2.6 4.3 0.00 0.01 0.00 64 1011.8
20260508144500 62 254 2.6 4.3 0.00 0.01 0.00 66 1011.9
20260508143000 60 263 2.6 5.2 0.00 0.01 0.00 69 1012.1
20260508141459 59 221 3.5 7.8 0.00 0.01 0.00 67 1012.2
20260508140005 57 219 3.5 7.8 0.00 0.01 0.00 70 1012.3
20260508131459 54 274 1.7 5.2 0.00 0.01 0.00 71 1012.5
20260508130004 53 236 0.0 3.5 0.00 0.01 0.00 76 1012.5
20260508124459 52 211 2.6 5.2 0.00 0.01 0.00 78 1012.5
20260508123000 51 217 0.9 3.5 0.00 0.01 0.00 79 1012.5
20260508121500 50 252 1.7 3.5 0.00 0.01 0.00 79 1012.4
20260508120005 49 261 0.0 2.6 0.00 0.01 0.00 79 1012.5
20260508114500 49 261 0.0 0.0 0.00 0.01 0.00 80 1012.5
20260508113000 49 261 0.0 0.0 0.00 0.01 0.00 79 1012.5
20260508111459 50 261 0.0 0.0 0.00 0.01 0.00 78 1012.3
20260508110004 50 261 0.0 0.0 0.00 0.01 0.00 78 1012.4
20260508104459 50 261 0.0 0.9 0.00 0.01 0.00 76 1012.2
20260508103000 50 261 0.0 0.9 0.00 0.01 0.00 75 1012.2
20260508100003 51 261 1.7 5.2 0.00 0.01 0.00 74 1012.1
20260508094458 51 279 2.6 5.2 0.00 0.01 0.00 74 1012.4
20260508092959 50 323 3.5 10.4 0.00 0.01 0.00 76 1012.1
20260508084458 49 208 0.9 2.6 0.00 0.01 0.00 80 1011.8
20260508083000 49 209 0.0 3.5 0.00 0.01 0.00 79 1012.0
20260508081458 50 205 2.6 4.3 0.00 0.01 0.00 80 1011.9
20260508080004 50 254 1.7 7.0 0.00 0.01 0.00 80 1012.1
20260508074459 51 238 3.5 10.4 0.00 0.01 0.00 78 1012.2
20260508072959 51 244 2.6 10.4 0.00 0.01 0.00 72 1012.6
20260508071458 51 224 2.6 4.3 0.00 0.01 0.00 71 1012.5
20260508070004 50 242 1.7 4.3 0.00 0.01 0.00 71 1012.3